CW8593 Gava ES current weather conditions

sailwx.info

Wind from 321 at 1 knots gusting 6

Air temperature 17.2° C
Dewpoint 14.9° C

Last reported at 2014-Oct-31 06:43 UTC.
Time now 2014-Oct-31 07:52 UTC

Location: N 41°18' E 001°60'.
View on Google Maps.

See reports from other nearby stations

  
Tides and Currents Weather Stations Pressure Air Temp Water Temp Dewpoint Dewpoint Depression Visibility Wind Speed Wind Dir Waves Ship Positions
date/time (UTC)wind fromknots sea level pressurealtimeterstation pressurevisibilityair tempwater tempwave heightnotes
2014-Oct-31 06:43 321 1 gusting 6 17.2
2014-Oct-31 06:33 323 2 gusting 6 17.2
2014-Oct-31 06:23 321 2 gusting 6 17.2
2014-Oct-31 06:13 338 4 gusting 7 17.2
2014-Oct-31 06:03 321 4 gusting 6 16.7
2014-Oct-31 05:43 310 4 gusting 10 16.7
2014-Oct-31 05:33 310 4 gusting 8 16.7
2014-Oct-31 05:13 321 2 gusting 7 17.2
2014-Oct-31 05:03 279 3 gusting 6 17.2
2014-Oct-31 04:13 317 4 gusting 7 17.2
2014-Oct-31 04:03 292 3 gusting 7 17.2
2014-Oct-31 03:53 311 5 gusting 8 17.2
2014-Oct-31 03:33 296 2 gusting 4 17.2
2014-Oct-31 03:23 296 1 gusting 4 17.2
2014-Oct-31 03:03 295 0 gusting 2 17.8
2014-Oct-31 02:53 295 1 gusting 2 17.8
2014-Oct-31 02:43 295 0 gusting 4 17.8
2014-Oct-31 02:33 295 0 gusting 2 17.8
2014-Oct-31 02:23 295 17.8
2014-Oct-31 02:03 295 17.8
2014-Oct-31 01:43 291 18.3
2014-Oct-31 01:33 292 18.3
2014-Oct-31 00:33 291 0 gusting 2 18.3
2014-Oct-31 00:23 291 2 gusting 5 18.3
2014-Oct-30 23:43 291 1 gusting 2 18.3
2014-Oct-30 23:23 291 1 gusting 4 17.8
2014-Oct-30 23:13 146 17.8
2014-Oct-30 23:03 146 0 gusting 2 17.8
2014-Oct-30 22:53 145 17.8
2014-Oct-30 22:33 145 0 gusting 2 17.8
2014-Oct-30 22:23 146 17.8
2014-Oct-30 22:13 145 17.8
2014-Oct-30 22:03 146 17.8
2014-Oct-30 21:53 145 17.8
2014-Oct-30 21:43 145 0 gusting 1 17.2
2014-Oct-30 21:13 145 16.7
2014-Oct-30 20:43 145 17.2
2014-Oct-30 20:13 145 17.2
2014-Oct-30 20:03 145 17.2
2014-Oct-30 19:43 145 17.8
2014-Oct-30 19:33 145 1 gusting 2 17.8
2014-Oct-30 19:13 145 17.8
2014-Oct-30 19:03 145 17.8
2014-Oct-30 18:53 145 17.8
2014-Oct-30 18:43 145 17.8
2014-Oct-30 18:23 145 17.8
2014-Oct-30 18:13 145 18.3
2014-Oct-30 18:03 145 18.3
2014-Oct-30 17:53 145 18.3
2014-Oct-30 17:43 142 18.3
2014-Oct-30 17:33 142 18.3
2014-Oct-30 17:23 142 18.9
2014-Oct-30 17:13 142 18.9
2014-Oct-30 17:03 142 19.4
2014-Oct-30 16:43 142 0 gusting 2 19.4
2014-Oct-30 16:33 142 20.0
2014-Oct-30 16:23 142 20.0
2014-Oct-30 16:13 142 20.0
2014-Oct-30 16:03 142 20.0
2014-Oct-30 15:33 140 0 gusting 4 20.0
2014-Oct-30 15:23 145 0 gusting 4 20.0
2014-Oct-30 15:13 142 1 gusting 4 20.0
2014-Oct-30 15:03 148 1 gusting 6 20.0
2014-Oct-30 14:43 169 2 gusting 5 20.6
2014-Oct-30 14:33 178 1 gusting 7 20.6
2014-Oct-30 14:23 164 0 gusting 5 20.6
2014-Oct-30 14:13 176 1 gusting 6 20.6
2014-Oct-30 14:03 113 3 gusting 6 20.6
2014-Oct-30 13:53 146 3 gusting 5 20.6
2014-Oct-30 13:33 141 1 gusting 6 20.6
2014-Oct-30 13:23 140 1 gusting 4 20.6
2014-Oct-30 12:53 157 2 gusting 6 20.6
2014-Oct-30 12:23 131 2 gusting 6 20.6
2014-Oct-30 12:13 183 1 gusting 7 20.6
2014-Oct-30 12:03 159 0 gusting 6 20.6
2014-Oct-30 11:53 138 3 gusting 6 20.6
2014-Oct-30 11:43 177 3 gusting 7 20.6
2014-Oct-30 11:03 164 1 gusting 6 21.7
2014-Oct-30 10:53 178 0 gusting 4 21.1
2014-Oct-30 10:33 161 1 gusting 7 21.1
2014-Oct-30 10:23 155 1 gusting 6 20.6
2014-Oct-30 10:13 090 2 gusting 7 20.6
2014-Oct-30 10:03 123 1 gusting 6 20.6
2014-Oct-30 09:43 119 1 gusting 4 20.6
2014-Oct-30 09:33 052 1 gusting 2 20.6
2014-Oct-30 09:23 052 0 gusting 2 20.6
2014-Oct-30 09:13 015 0 gusting 2 20.6
2014-Oct-30 09:03 012 20.6
2014-Oct-30 08:53 011 20.6
2014-Oct-30 08:43 005 0 gusting 2 20.0
2014-Oct-30 08:33 355 18.9
2014-Oct-30 08:23 355 18.9
2014-Oct-30 08:03 355 1 gusting 4 17.8
2014-Oct-30 07:53 336 1 gusting 4 17.8
2014-Oct-30 07:33 337 0 gusting 2 17.2
2014-Oct-30 07:13 311 0 gusting 2 16.7
2014-Oct-30 07:03 310 16.1
2014-Oct-30 06:53 311 16.1
2014-Oct-30 06:33 311 16.1
2014-Oct-30 06:23 310 16.1
2014-Oct-30 06:13 311 16.1
2014-Oct-30 06:03 311 16.1
2014-Oct-30 05:53 311 16.1
2014-Oct-30 05:43 311 16.1
2014-Oct-30 05:33 311 16.1
2014-Oct-30 05:23 310 16.1
2014-Oct-30 05:13 310 16.1
2014-Oct-30 05:03 311 16.1
2014-Oct-30 04:53 310 16.1
2014-Oct-30 04:43 311 16.7
2014-Oct-30 04:33 311 16.7
2014-Oct-30 04:03 311 16.7
2014-Oct-30 03:53 310 17.2
2014-Oct-30 03:23 311 16.7
2014-Oct-30 03:03 311 16.7
2014-Oct-30 02:43 310 16.7
2014-Oct-30 02:13 313 2 gusting 6 16.7
2014-Oct-30 01:53 273 16.1
2014-Oct-30 01:43 272 16.1
2014-Oct-30 01:13 273 16.7
2014-Oct-30 00:53 272 0 gusting 1 16.7
2014-Oct-30 00:43 272 16.7
2014-Oct-30 00:33 273 0 gusting 2 16.7
2014-Oct-30 00:23 273 0 gusting 1 16.7
2014-Oct-30 00:03 273 0 gusting 2 16.7
2014-Oct-29 23:53 273 16.7
2014-Oct-29 23:33 272 16.7
2014-Oct-29 23:23 272 17.2
2014-Oct-29 23:13 273 2 gusting 4 17.2
2014-Oct-29 23:03 190 0 gusting 2 16.7
2014-Oct-29 22:53 190 16.7
2014-Oct-29 22:43 190 16.7
2014-Oct-29 22:23 190 16.7
2014-Oct-29 22:03 190 0 gusting 2 16.7
2014-Oct-29 21:53 190 0 gusting 1 16.7
2014-Oct-29 21:43 190 0 gusting 1 16.7
2014-Oct-29 21:33 190 16.7
2014-Oct-29 21:23 190 16.7
2014-Oct-29 21:13 190 16.7
2014-Oct-29 21:03 190 16.7
2014-Oct-29 20:53 190 0 gusting 1 16.7
2014-Oct-29 20:43 190 16.7
2014-Oct-29 20:33 190 16.7
2014-Oct-29 20:23 190 17.2
2014-Oct-29 19:53 190 17.2
2014-Oct-29 19:33 190 17.8
2014-Oct-29 19:23 190 17.8
2014-Oct-29 19:13 190 17.2
2014-Oct-29 19:03 190 1 gusting 2 17.2
2014-Oct-29 18:43 190 17.2
2014-Oct-29 18:23 190 0 gusting 1 17.8
2014-Oct-29 18:03 190 17.8
2014-Oct-29 17:53 190 0 gusting 1 17.8
2014-Oct-29 17:43 190 18.3
2014-Oct-29 17:23 190 18.9
2014-Oct-29 17:03 190 19.4
2014-Oct-29 16:53 190 0 gusting 4 19.4
2014-Oct-29 16:43 190 1 gusting 5 19.4
2014-Oct-29 16:33 189 1 gusting 6 20.0
2014-Oct-29 16:23 185 3 gusting 6 20.0
2014-Oct-29 16:03 191 1 gusting 6 20.6
2014-Oct-29 15:53 198 2 gusting 7 20.6
2014-Oct-29 15:43 201 4 gusting 8 21.1
2014-Oct-29 15:33 223 0 gusting 7 21.1
2014-Oct-29 15:23 219 1 gusting 5 21.1
2014-Oct-29 15:13 200 1 gusting 6 21.1
2014-Oct-29 15:03 191 2 gusting 6 21.1
2014-Oct-29 14:43 186 3 gusting 8 21.1
2014-Oct-29 14:33 201 2 gusting 6 21.1
2014-Oct-29 14:23 198 5 gusting 7 21.1
2014-Oct-29 13:53 204 2 gusting 6 20.6
2014-Oct-29 13:43 134 1 gusting 6 21.1
2014-Oct-29 13:23 137 4 gusting 6 20.6
2014-Oct-29 13:13 103 3 gusting 6 21.1
2014-Oct-29 13:03 126 4 gusting 6 21.7
2014-Oct-29 12:53 175 1 gusting 6 21.7
2014-Oct-29 12:43 146 3 gusting 8 21.1
2014-Oct-29 12:13 119 4 gusting 7 21.7
2014-Oct-29 12:03 143 1 gusting 6 21.7
2014-Oct-29 11:53 225 1 gusting 5 21.7
2014-Oct-29 11:43 157 1 gusting 5 21.1
2014-Oct-29 11:23 179 2 gusting 5 21.1
2014-Oct-29 10:53 154 2 gusting 6 21.7
2014-Oct-29 10:43 138 0 gusting 4 21.7
2014-Oct-29 10:33 111 1 gusting 6 21.7
2014-Oct-29 10:23 090 0 gusting 6 21.7
2014-Oct-29 10:03 076 0 gusting 4 20.6
2014-Oct-29 09:53 075 2 gusting 4 21.1
2014-Oct-29 09:43 013 21.1
2014-Oct-29 09:23 038 0 gusting 4 20.6
2014-Oct-29 08:43 334 0 gusting 5 19.4
2014-Oct-29 08:33 344 1 gusting 5 18.9
2014-Oct-29 08:23 309 0 gusting 2 18.9
2014-Oct-29 08:13 308 0 gusting 5 18.3
2014-Oct-29 07:53 304 1 gusting 5 17.8
2014-Oct-29 07:23 314 4 gusting 6 17.2
2014-Oct-29 07:13 304 1 gusting 4 17.2
2014-Oct-29 07:03 304 0 gusting 4 16.7